This is the latest recevied weather packets stored in our database for station/object XQ6AK-15. If no packets are shown the sender has not sent any weather packets the latest 10 day(s).
| Time | Temp. | Humidity | Pressure | Rain* | Wind** | Luminosity | Snow |
|---|---|---|---|---|---|---|---|
| 1777810700 | 7.78° C | 99% | 1009 hPa | 0 mm | - | 9 W/m² | - |
| 1777810396 | 7.78° C | 99% | 1008.9 hPa | 1.27 mm | - | 4 W/m² | - |
| 1777810092 | 7.78° C | 99% | 1009 hPa | 1.27 mm | - | 5 W/m² | - |
| 1777809790 | 7.78° C | 99% | 1009.3 hPa | 1.78 mm | - | 1 W/m² | - |
| 1777809488 | 7.78° C | 99% | 1009 hPa | 1.27 mm | - | 0 W/m² | - |
| 1777809186 | 7.78° C | 99% | 1008.8 hPa | 1.27 mm | - | 0 W/m² | - |
| 1777808883 | 7.78° C | 99% | 1009.1 hPa | 0 mm | - | 0 W/m² | - |
| 1777808579 | 7.78° C | 99% | 1009.1 hPa | 0 mm | - | 0 W/m² | - |
| 1777808276 | 7.78° C | 99% | 1009 hPa | 1.78 mm | - | 0 W/m² | - |
| 1777807975 | 7.78° C | 99% | 1008.8 hPa | 1.78 mm | - | 0 W/m² | - |
| 1777807672 | 7.78° C | 99% | 1008.9 hPa | 0 mm | - | 0 W/m² | - |
| 1777807370 | 7.78° C | 99% | 1009 hPa | 0 mm | - | 0 W/m² | - |
| 1777807065 | 7.78° C | 99% | 1009 hPa | 0 mm | - | 0 W/m² | - |
| 1777806763 | 7.78° C | 99% | 1009 hPa | 0 mm | - | 0 W/m² | - |
| 1777806458 | 7.78° C | 99% | 1009 hPa | 0 mm | - | 0 W/m² | - |
| 1777806155 | 7.78° C | 99% | 1008.8 hPa | 1.27 mm | - | 0 W/m² | - |
| 1777805852 | 7.78° C | 99% | 1009.1 hPa | 1.27 mm | - | 0 W/m² | - |
| 1777805549 | 7.78° C | 99% | 1009 hPa | 1.78 mm | - | 0 W/m² | - |
| 1777805247 | 7.78° C | 99% | 1009 hPa | 3.05 mm | - | 0 W/m² | - |
| 1777804945 | 8.33° C | 99% | 1009 hPa | 1.27 mm | - | 0 W/m² | - |
| 1777804642 | 8.33° C | 99% | 1008.9 hPa | 1.78 mm | - | 0 W/m² | - |
| 1777804340 | 8.33° C | 99% | 1009 hPa | 3.05 mm | - | 0 W/m² | - |
| 1777804036 | 8.33° C | 99% | 1009 hPa | 3.56 mm | - | 0 W/m² | - |
| 1777803733 | 8.33° C | 99% | 1008.9 hPa | 1.78 mm | - | 0 W/m² | - |
| 1777803428 | 8.33° C | 99% | 1008.9 hPa | 1.27 mm | - | 0 W/m² | - |
* Rain latest hour (hover to see other rain measurements)
** Current wind speed in m/s (hover to see current wind gust speed)